(79848) = 1998 XO13 = 2002 TS228 = 2000 EM35

Discovered at Caussols on 1998-12-15 by ODAS.

Orbit

Orbit type: Main Belt

Note: WebGL enabled browser required.

epoch2023-09-13.0
epoch JD2460200.5
perihelion date2023-09-01.64321
perihelion JD2460189.14321
argument of perihelion (°)272.96389
ascending node (°)80.98082
inclination (°)2.88612
eccentricity0.0386977
perihelion distance (AU)2.5202496
Tisserand w.r.t. Jupiter3.4
ΔV w.r.t. Earth (km/sec)9.9
semimajor axis (AU)2.6217033
mean anomaly (°)2.63684
mean daily motion (°/day)0.23218200
aphelion distance (AU)2.723
period (years)4.24
P-vector [x]0.99316952
P-vector [y]-0.07659953
P-vector [z]-0.08801603
Q-vector [x]0.10555281
Q-vector [y]0.91131800
Q-vector [z]0.39794234
absolute magnitude16.02
phase slope0.15
uncertainty0
referenceMPEC 2024-A48
observations used1019
oppositions20
arc length (days)10120
first opposition used1996
last opposition used2023
residual rms (arc-secs)0.68
perturbers coarse indicatorM-v
perturbers precise indicator003Ek
first observation date used1996-03-23.0
last observation date used2023-12-07.0
computer nameMPCLINUX
JD of orbit computation2456937.206270
perihelion JD uncertainty (days)1.8204E-04
argument of perihelion uncertainty (°)8.2553E-05
ascending node uncertainty (°)7.1678E-05
inclination uncertainty (°)3.1185E-06
eccentricity uncertainty 3.6379E-08
perihelion distance uncertainty (AU)1.0166E-07
Minimum Orbit Intersection Distances (in AU)
for orbit epoch: 2460200.5, reference: E2024-A48
Mercury2.11906
Venus1.79329
Earth1.51576
Mars1.04365
Jupiter2.42198
Saturn6.41477
Uranus15.7264
Neptune27.2958

Observations

1038 total observations over interval: 1996 03 23.32411 – 2023 12 07.120037
These data are available for download (format description).

Date (UT) J2000 RA J2000 Dec Magn Location Ref
1996 03 23.32411 12 36 04.51 +00 53 19.5   691 – Steward Observatory, Kitt Peak-Spacewatch MPS 62660
1996 03 23.34494 12 36 03.41 +00 53 27.0   691 – Steward Observatory, Kitt Peak-Spacewatch MPS 62660
1996 03 23.36621 12 36 02.27 +00 53 33.8 19.8 V 691 – Steward Observatory, Kitt Peak-Spacewatch MPS 62660
1998 11 15.37048 03 41 37.56 +17 33 25.4 20.4 V 691 – Steward Observatory, Kitt Peak-Spacewatch MPS 79528
1998 11 15.39249 03 41 36.22 +17 33 22.7 20.6 V 691 – Steward Observatory, Kitt Peak-Spacewatch MPS 79528
1998 11 15.41391 03 41 34.91 +17 33 20.3 20.0 V 691 – Steward Observatory, Kitt Peak-Spacewatch MPS 79528
1998 11 19.20316 03 37 50.05 +17 24 50.7 19.0 R 699 – Lowell Observatory-LONEOS MPS 81336
1998 11 19.20826 03 37 49.75 +17 24 50.6   699 – Lowell Observatory-LONEOS MPS 81336
1998 11 19.21336 03 37 49.45 +17 24 49.6   699 – Lowell Observatory-LONEOS MPS 81336
1998 12 08.18741 03 20 37.16 +16 47 46.4 19.9 V 691 – Steward Observatory, Kitt Peak-Spacewatch MPS 34063
1998 12 08.20990 03 20 36.06 +16 47 44.2 20.1 V 691 – Steward Observatory, Kitt Peak-Spacewatch MPS 34063
1998 12 08.23512 03 20 34.88 +16 47 42.2 19.8 V 691 – Steward Observatory, Kitt Peak-Spacewatch MPS 34063
1998 12 13.25024 03 17 04.01 +16 41 30.8 20.3 V 691 – Steward Observatory, Kitt Peak-Spacewatch MPS 79528
1998 12 13.28437 03 17 02.65 +16 41 28.4 21.2 V 691 – Steward Observatory, Kitt Peak-Spacewatch MPS 79528
1998 12 13.30655 03 17 01.75 +16 41 26.9 21.6 V 691 – Steward Observatory, Kitt Peak-Spacewatch MPS 79528
1998 12 15.89625 03 15 27.71 +16 39 06.0 20.4 V 910 – Caussols-ODAS MPS 3393
1998 12 15.91896 03 15 26.91 +16 39 04.8 20.3 V 910 – Caussols-ODAS MPS 3393
1998 12 15.94250 03 15 26.05 +16 39 04.1 20.0 V 910 – Caussols-ODAS MPS 3393
1998 12 16.86331 03 14 55.31 +16 38 22.9 19.9 V 910 – Caussols-ODAS MPS 3393
1998 12 16.88659 03 14 54.51 +16 38 22.1 20.5 V 910 – Caussols-ODAS MPS 3393
1998 12 16.90932 03 14 53.70 +16 38 21.0 20.1 V 910 – Caussols-ODAS MPS 3393
1999 02 07.11162 03 23 54.05 +18 16 37.0 22.2 V 691 – Steward Observatory, Kitt Peak-Spacewatch MPS 79528
1999 02 07.13330 03 23 55.07 +18 16 42.2 22.1 V 691 – Steward Observatory, Kitt Peak-Spacewatch MPS 79528
1999 02 07.15505 03 23 56.10 +18 16 47.4 21.9 V 691 – Steward Observatory, Kitt Peak-Spacewatch MPS 79528
1999 02 13.10596 03 29 06.93 +18 40 56.6 21.0 V 691 – Steward Observatory, Kitt Peak-Spacewatch MPS 62660
1999 02 13.12811 03 29 08.13 +18 41 02.3 21.2 V 691 – Steward Observatory, Kitt Peak-Spacewatch MPS 62660
1999 02 13.15045 03 29 09.40 +18 41 07.6 21.1 V 691 – Steward Observatory, Kitt Peak-Spacewatch MPS 62660
2000 03 08.24977 10 56 05.87 +11 39 30.6 19.1   704 – Lincoln Laboratory ETS, New Mexico MPS 11405
2000 03 08.26391 10 56 05.11 +11 39 36.3 19.4   704 – Lincoln Laboratory ETS, New Mexico MPS 11405
2000 03 08.29253 10 56 03.64 +11 39 44.5 19.7   704 – Lincoln Laboratory ETS, New Mexico MPS 11405
2000 03 08.30759 10 56 02.69 +11 39 48.2 19.6   704 – Lincoln Laboratory ETS, New Mexico MPS 11405
2000 03 09.29744 10 55 10.93 +11 44 57.5 19.1   704 – Lincoln Laboratory ETS, New Mexico MPS 11405
2000 03 09.32383 10 55 09.53 +11 45 05.7 19.2   704 – Lincoln Laboratory ETS, New Mexico MPS 11405
2000 03 09.33704 10 55 08.76 +11 45 09.8 19.5   704 – Lincoln Laboratory ETS, New Mexico MPS 11405
2000 03 09.35030 10 55 08.08 +11 45 12.7 19.7   704 – Lincoln Laboratory ETS, New Mexico MPS 11405
2002 10 07.37150 01 58 49.98 +07 55 47.4 20.9   608 – Haleakala-AMOS MPS 64192
2002 10 07.38219 01 58 49.49 +07 55 43.4 21.2   608 – Haleakala-AMOS MPS 64192
2002 10 07.39283 01 58 48.88 +07 55 41.3 20.2   608 – Haleakala-AMOS MPS 64192
2002 10 09.27003 01 57 17.56 +07 47 42.6 19.0 R 699 – Lowell Observatory-LONEOS MPS 64192
2002 10 09.29113 01 57 16.50 +07 47 36.9   699 – Lowell Observatory-LONEOS MPS 64192
2002 10 09.31219 01 57 15.41 +07 47 32.4   699 – Lowell Observatory-LONEOS MPS 64192
2002 10 09.33321 01 57 14.42 +07 47 26.2   699 – Lowell Observatory-LONEOS MPS 64192
2002 10 11.25008 01 55 38.38 +07 39 10.4 18.8   704 – Lincoln Laboratory ETS, New Mexico MPS 64192
2002 10 11.25244 01 55 38.30 +07 39 10.1 19.2   704 – Lincoln Laboratory ETS, New Mexico MPS 64192
2002 10 11.28003 01 55 36.88 +07 39 03.0 19.7   704 – Lincoln Laboratory ETS, New Mexico MPS 64192
2002 10 11.28407 01 55 36.60 +07 39 01.3 19.3   704 – Lincoln Laboratory ETS, New Mexico MPS 64192
2002 10 11.29499 01 55 35.98 +07 39 00.4 19.8   704 – Lincoln Laboratory ETS, New Mexico MPS 64192
2002 10 11.29989 01 55 35.75 +07 38 58.3 19.4   704 – Lincoln Laboratory ETS, New Mexico MPS 64192
2002 10 11.30998 01 55 35.16 +07 38 55.5 19.6   704 – Lincoln Laboratory ETS, New Mexico MPS 64192
2002 10 11.31581 01 55 34.89 +07 38 53.7 19.0   704 – Lincoln Laboratory ETS, New Mexico MPS 64192
2002 10 30.22344 01 38 52.52 +06 19 41.2 19.3   644 – Palomar Mountain/NEAT MPS 66182
2002 10 30.24438 01 38 51.39 +06 19 36.8 19.2   644 – Palomar Mountain/NEAT MPS 66182
2002 10 30.26430 01 38 50.35 +06 19 32.4 19.2   644 – Palomar Mountain/NEAT MPS 66182
2004 01 18.33416 09 41 10.26 +17 31 49.1 19.3   644 – Palomar Mountain/NEAT MPS 96844
2004 01 18.35561 09 41 09.35 +17 31 56.1 19.9   644 – Palomar Mountain/NEAT MPS 96844
2004 01 18.38053 09 41 08.24 +17 32 02.8 19.7   644 – Palomar Mountain/NEAT MPS 96844
2004 01 22.29806 09 38 12.33 +17 51 36.4 19.7   704 – Lincoln Laboratory ETS, New Mexico MPS 96844
2004 01 22.31086 09 38 11.69 +17 51 40.0 19.8   704 – Lincoln Laboratory ETS, New Mexico MPS 96844
2004 01 22.32387 09 38 11.07 +17 51 44.3 19.7   704 – Lincoln Laboratory ETS, New Mexico MPS 96844
2004 01 22.33662 09 38 10.44 +17 51 48.8 20.5   704 – Lincoln Laboratory ETS, New Mexico MPS 96844
2004 01 22.34964 09 38 09.76 +17 51 51.6 20.3   704 – Lincoln Laboratory ETS, New Mexico MPS 96844
2004 01 26.36202 09 34 52.15 +18 12 33.5 19.6 R 699 – Lowell Observatory-LONEOS MPS 97551
2004 01 26.38123 09 34 51.08 +18 12 39.3   699 – Lowell Observatory-LONEOS MPS 97551
2004 01 26.40043 09 34 50.06 +18 12 47.0   699 – Lowell Observatory-LONEOS MPS 97551
2004 01 26.42859 09 34 48.71 +18 12 54.6   699 – Lowell Observatory-LONEOS MPS 97551
2004 01 31.26705 09 30 32.41 +18 38 13.2 19.7 V 691 – Steward Observatory, Kitt Peak-Spacewatch MPS 97551
2004 01 31.29512 09 30 30.83 +18 38 21.9 19.9 V 691 – Steward Observatory, Kitt Peak-Spacewatch MPS 97551
2004 01 31.32794 09 30 28.99 +18 38 32.6 19.8 V 691 – Steward Observatory, Kitt Peak-Spacewatch MPS 97551
2004 02 11.28359 09 20 12.61 +19 33 29.7 19.1 R 699 – Lowell Observatory-LONEOS MPS 98556
2004 02 11.30387 09 20 11.45 +19 33 36.3   699 – Lowell Observatory-LONEOS MPS 98556
2004 02 11.32410 09 20 10.39 +19 33 41.1   699 – Lowell Observatory-LONEOS MPS 98556
2004 02 11.34438 09 20 09.00 +19 33 47.0   699 – Lowell Observatory-LONEOS MPS 98556
2004 02 12.18726 09 19 21.78 +19 37 43.5 19.9 V 691 – Steward Observatory, Kitt Peak-Spacewatch MPS 98556
2004 02 12.21410 09 19 20.23 +19 37 51.1 19.7 V 691 – Steward Observatory, Kitt Peak-Spacewatch MPS 98556
2004 02 12.24303 09 19 18.55 +19 37 59.2 19.8 V 691 – Steward Observatory, Kitt Peak-Spacewatch MPS 98556
2004 02 16.28397 09 15 33.54 +19 55 55.3 19.7   704 – Lincoln Laboratory ETS, New Mexico MPS 98556
2004 02 16.29561 09 15 32.87 +19 55 58.7 20.1   704 – Lincoln Laboratory ETS, New Mexico MPS 98556
2004 02 16.30728 09 15 32.20 +19 56 01.0 20.2   704 – Lincoln Laboratory ETS, New Mexico MPS 98556
2004 02 16.31898 09 15 31.62 +19 56 04.6 20.0   704 – Lincoln Laboratory ETS, New Mexico MPS 98556
2004 03 01.12127 09 04 16.03 +20 43 35.4 20.1 V 291 – LPL/Spacewatch II MPS 100653
2004 03 01.14280 09 04 15.13 +20 43 38.9 20.5 V 291 – LPL/Spacewatch II MPS 100653
2004 03 01.16441 09 04 14.19 +20 43 42.5 20.1 V 291 – LPL/Spacewatch II MPS 100653
2005 05 20.34566 15 51 30.74 -18 24 46.4 18.9 V G96 – Mt. Lemmon Survey MPS 135267
2005 05 20.35226 15 51 30.34 -18 24 46.0 18.9 V G96 – Mt. Lemmon Survey MPS 135267
2005 05 20.35888 15 51 29.95 -18 24 45.3 19.0 V G96 – Mt. Lemmon Survey MPS 135267
2005 06 01.23968 15 40 27.07 -18 02 39.6 20.0 V 691 – Steward Observatory, Kitt Peak-Spacewatch MPS 135847
